KB4QOR Weather Reports


time (UTC)temp
F
wind
direction
speed
knots
gust
knots
rain 1hr
in
rain 24hr
in
rain mn
in
humidity
%
barometer
mb
20260505211528 64 269 0.9 5.2 0.00 0.00 0.00 69 1008.4
20260505210028 64 0 0.0 2.6 0.00 0.00 0.00 69 1008.5
20260505204530 64 279 0.9 3.5 0.00 0.00 0.00 69 1008.8
20260505203028 64 0 0.0 2.6 0.00 0.00 0.00 70 1009.0
20260505201530 64 0 0.0 5.2 0.00 0.00 0.00 70 1009.0
20260505200030 64 276 0.9 6.1 0.00 0.00 0.00 71 1009.2
20260505194534 65 277 0.9 3.5 0.00 0.00 0.00 71 1009.4
20260505193038 65 275 0.9 6.1 0.00 0.00 0.00 72 1009.6
20260505191544 65 277 2.6 7.8 0.00 0.00 0.00 72 1009.6
20260505190030 66 268 1.7 7.8 0.00 0.00 0.00 72 1009.8
20260505184529 66 271 2.6 9.6 0.00 0.00 0.00 72 1009.9
20260505183029 66 266 3.5 7.8 0.00 0.00 0.00 72 1010.2
20260505181530 66 269 2.6 11.3 0.00 0.00 0.00 72 1010.1
20260505180042 66 285 2.6 10.4 0.00 0.00 0.00 72 1009.9
20260505174537 66 262 2.6 9.6 0.00 0.00 0.00 72 1009.9
20260505173030 65 279 4.3 9.6 0.00 0.00 0.00 72 1010.3
20260505171533 65 288 2.6 7.8 0.00 0.00 0.00 72 1010.5
20260505170032 64 267 2.6 8.7 0.00 0.00 0.00 72 1010.6
20260505164532 64 258 3.5 10.4 0.00 0.00 0.00 72 1010.7
20260505163028 64 120 4.3 12.2 0.00 0.00 0.00 72 1010.9
20260505161528 64 270 4.3 10.4 0.00 0.00 0.00 71 1011.1
20260505153035 63 273 1.7 7.8 0.00 0.00 0.00 68 1011.2
20260505151533 62 274 0.9 7.0 0.00 0.00 0.00 68 1011.0
20260505124528 60 0 0.0 3.5 0.00 0.03 0.00 63 1011.2
20260505123049 59 0 0.0 2.6 0.00 0.03 0.00 64 1011.1
20260505121530 59 269 0.0 3.5 0.00 0.03 0.00 64 1011.0
20260505120030 59 263 0.0 2.6 0.00 0.03 0.00 65 1011.0
20260505114528 60 258 0.0 1.7 0.00 0.06 0.00 66 1010.9
20260505113037 60 0 0.0 0.9 0.00 0.06 0.00 66 1010.8
20260505111550 60 0 0.0 0.9 0.00 0.06 0.00 67 1010.8
20260505101534 60 265 0.0 2.6 0.00 0.06 0.00 69 1010.3
20260505100045 60 263 0.9 2.6 0.00 0.06 0.00 70 1010.1
20260505094530 60 0 0.0 2.6 0.00 0.07 0.00 70 1009.9
20260505093030 60 275 0.0 2.6 0.00 0.07 0.00 71 1009.8
20260505091534 60 0 0.9 5.2 0.00 0.07 0.00 72 1009.3
20260505090034 60 267 0.9 5.2 0.00 0.07 0.00 71 1009.3
20260505084527 60 281 0.9 3.5 0.00 0.07 0.00 72 1009.4
20260505083035 60 261 0.9 5.2 0.00 0.07 0.00 72 1009.3
20260505081533 61 0 0.9 5.2 0.00 0.07 0.00 72 1009.2
20260505080036 61 275 0.9 5.2 0.00 0.07 0.00 72 1009.1
20260505074528 61 273 0.9 3.5 0.00 0.07 0.00 72 1009.0
20260505073030 61 274 0.9 3.5 0.00 0.07 0.00 72 1009.1
20260505071535 62 123 0.9 5.2 0.00 0.07 0.00 72 1008.9
20260505070038 62 253 0.9 7.0 0.00 0.07 0.00 72 1008.8
20260505064550 62 275 1.7 7.8 0.00 0.07 0.00 72 1008.9
20260505063031 62 271 1.7 7.8 0.00 0.07 0.00 72 1008.8
20260505061609 62 304 1.7 7.8 0.00 0.07 0.00 72 1008.7
20260505061539 62 304 1.7 7.8 0.00 0.07 0.00 72 1008.7
20260505060032 62 266 1.7 7.8 0.00 0.07 0.00 72 1009.0
20260505054531 62 280 1.7 7.0 0.00 0.07 0.00 72 1008.7
20260505053028 62 277 1.7 5.2 0.00 0.07 0.00 72 1008.5
20260505051528 63 272 0.9 5.2 0.00 0.07 0.00 72 1008.7
20260505041534 64 254 0.0 1.7 0.00 0.07 0.00 72 1009.0
20260505040030 64 253 0.9 2.6 0.00 0.07 0.00 72 1009.1
20260505034532 65 269 0.0 2.6 0.00 0.07 0.07 72 1009.1
20260505033032 65 269 0.0 2.6 0.00 0.07 0.07 72 1008.8
20260505031528 65 0 0.0 2.6 0.00 0.07 0.07 72 1008.5
20260505030028 65 0 0.0 3.5 0.00 0.07 0.07 72 1008.5
20260505024540 66 0 0.0 2.6 0.00 0.07 0.07 71 1008.3
20260505023028 66 304 0.9 2.6 0.00 0.07 0.07 71 1008.0
20260505021536 66 265 0.0 3.5 0.00 0.07 0.07 71 1007.7
20260505020033 67 0 0.9 5.2 0.00 0.07 0.07 71 1007.4
20260505014536 67 280 0.9 6.1 0.00 0.07 0.07 71 1007.1
20260505013031 68 0 0.0 2.6 0.00 0.07 0.07 70 1007.1
20260505011533 68 270 0.9 5.2 0.00 0.07 0.07 70 1007.1
20260505010028 68 275 1.7 6.1 0.00 0.07 0.07 68 1007.1
20260505004532 68 0 0.9 68.6 0.00 0.07 0.07 69 1006.8
20260505003032 69 254 0.9 5.2 0.00 0.07 0.07 69 1006.9
20260505001535 70 282 0.9 5.2 0.00 0.07 0.07 69 1007.0
20260505000039 70 315 1.7 6.1 0.00 0.07 0.07 68 1007.0
20260504234530 71 271 0.9 7.8 0.00 0.07 0.07 68 1007.2
20260504233029 71 262 0.9 5.2 0.00 0.07 0.07 68 1007.7
20260504231540 71 254 0.9 6.1 0.00 0.07 0.07 67 1008.1
20260504230033 71 266 2.6 8.7 0.00 0.07 0.07 66 1008.2
20260504224536 72 271 1.7 6.1 0.00 0.07 0.07 66 1008.6
20260504223028 73 269 3.5 7.8 0.00 0.07 0.07 66 1008.5
20260504221528 73 269 0.9 10.4 0.00 0.07 0.07 66 1008.8
20260504220034 73 283 1.7 11.3 0.00 0.07 0.07 66 1008.6
20260504214532 74 268 3.5 9.6 0.00 0.07 0.07 66 1008.6
20260504213028 74 87 3.5 9.6 0.00 0.07 0.07 66 1008.4